Other Public Products
Issued by NWS Grand Forks, ND

Home | Current Version | Previous Version | Text Only | Print | Product List | Glossary Off
Versions: 1 2 3 4 5 6 7 8 9 10 11 12 13 14 15 16 17 18 19 20 21 22 23 24 25 26 27 28 29 30 31 32 33 34 35 36 37 38 39 40 41 42 43 44 45 46 47 48 49 50

000
FPUS83 KFGF 311210
OPUFGF
PRAIRIE TO PINES WEATHER ROUNDUP
NATIONAL WEATHER SERVICE EASTERN NORTH DAKOTA/GRAND FORKS ND
700 AM CDT FRI JUL 31 2015

 **SATELLITE DATA USED TO AUGMENT SKY COVER AT AUTOMATED STATIONS**
 *****  WEATHER ACROSS EASTERN NORTH DAKOTA  *****

CITY           SKY/WX    TMP DP  RH WIND       PRES   REMARKS
GRAND FORKS    CLEAR     59  52  77 W9        30.04R
6HR MIN TEMP:  55; 6HR MAX TEMP:  60;

GRAND FORKS AF CLEAR     60  53  76 W9        30.06R
GRAND CITY NWS   N/A     55 N/A N/A W3          N/A
BUXTON         NOT AVBL
DEVILS LAKE    PTCLDY    61  48  63 W9        30.10R
6HR MIN TEMP:  57; 6HR MAX TEMP:  61;

FARGO          CLEAR     57  52  83 W10       30.08R
6HR MIN TEMP:  56; 6HR MAX TEMP:  61;

WAHPETON ARPT  NOT AVBL
$$

 *****  WEATHER ACROSS CENTRAL AND WESTERN NORTH DAKOTA  *****

CITY           SKY/WX    TMP DP  RH WIND       PRES   REMARKS
JAMESTOWN      CLEAR     58  51  78 W6        30.13R
6HR MIN TEMP:  56; 6HR MAX TEMP:  63;

BISMARCK       CLEAR     54  51  90 W3        30.18S
6HR MIN TEMP:  49; 6HR MAX TEMP:  62;

MINOT          CLEAR     59  50  72 W6        30.13S
6HR MIN TEMP:  55; 6HR MAX TEMP:  60;

MINOT AFB      CLEAR     52  52  99 W5        30.13S
6HR MIN TEMP:  50; 6HR MAX TEMP:  55;

GARRISON         N/A     58  52  80 CALM      30.15S
6HR MIN TEMP:  52; 6HR MAX TEMP:  59;

WILLISTON      CLEAR     55  51  86 CALM      30.16S
6HR MIN TEMP:  54; 6HR MAX TEMP:  60;

DICKINSON      CLEAR     55  48  77 SW7       30.18S
6HR MIN TEMP:  50; 6HR MAX TEMP:  59;

HETTINGER      CLEAR     48  44  86 CALM      30.22S
6HR MIN TEMP:  44; 6HR MAX TEMP:  54;

$$

 *****  OTHER OBSERVATIONS NORTHEAST NORTH DAKOTA  *****

CITY           SKY/WX    TMP DP  RH WIND       PRES   REMARKS
WALHALLA       FAIR      61  52  72 MISG      30.04R
LANGDON        FAIR      54  50  87 W9        30.08R
CAVALIER       FAIR      59  50  72 W7        30.04R
GRAFTON        FAIR      59  54  82 W12       30.04R
CANDO          NOT AVBL
FORT TOTTEN      N/A     56  52  87 W2        29.95S
ROLLA          FAIR      57  50  77 W8        30.12R
RUGBY          NOT AVBL
 ***** THE ABOVE OBSERVATIONS ARE NON NWS ARE NOT QUALITY
        CONTROLLED AND MAY MIS-REPORT RAIN FOR SNOW...
$$

 *****  OTHER OBSERVATIONS SOUTHEAST NORTH DAKOTA *****

CITY           SKY/WX    TMP DP  RH WIND       PRES   REMARKS
COOPERSTOWN    NOT AVBL
VALLEY CITY    FAIR      57  54  88 W12       30.12R
OAKES            N/A     55  54  94 W6        30.14S
GWINNER        FAIR      57  52  82 W9        30.13S
SHEYENNE NWR     N/A     55  51  88 W7        29.95S
BUFFALO        NOT AVBL
WYNDMERE       NOT AVBL
 ***** THE ABOVE OBSERVATIONS ARE NON NWS ARE NOT QUALITY
       CONTROLLED AND MAY MIS-REPORT RAIN FOR SNOW...
$$

  *****  WEATHER ACROSS NORTHERN MINNESOTA  *****

CITY           SKY/WX    TMP DP  RH WIND       PRES   REMARKS
FLAG ISLAND    CLEAR     59  54  82 W10       29.94S
WARROAD        CLEAR     55  52  88 W7        29.98S
ROSEAU         CLEAR     57  52  82 W8        29.99S
HALLOCK        CLEAR     55  52  88 W6        30.01S
THF RVR FALLS  CLEAR     55  50  82 W7        30.04R
6HR MIN TEMP:  54; 6HR MAX TEMP:  59;

HALSTAD        NOT AVBL
FOSSTON        CLEAR     55  50  82 CALM      30.06R
BAUDETTE       CLEAR     57  52  83 W7        29.97R
6HR MIN TEMP:  56; 6HR MAX TEMP:  60;

WASKISH        CLEAR     63  55  77 W13G21    29.99R
CROOKSTON      CLEAR     55  52  88 W6        30.05R
$$
  *****  WEATHER ACROSS CENTRAL AND WEST MINNESOTA  *****

CITY           SKY/WX    TMP DP  RH WIND       PRES   REMARKS
BEMIDJI        CLEAR     57  50  78 W8        30.03R
PARK RAPIDS    CLEAR     57  51  80 W8        30.06R
6HR MIN TEMP:  54; 6HR MAX TEMP:  64;

WADENA         CLEAR     57  52  82 W6        30.08R
DETROIT LAKES  CLEAR     61  52  72 W8        30.09R
MOORHEAD       CLEAR     55  54  94 SW6       30.09R
FERGUS FALLS   CLEAR     55  54  94 NW3       30.10S
ELBOW LAKE     FAIR      56  53  91 W5        30.11R
MORRIS MN      CLEAR     59  55  88 W5        30.11S
STAPLES        CLEAR     57  52  82 W7        30.07R
WHEATON        CLEAR     57  52  82 SW5       30.13S
$$
  *****  WEATHER ELSEWHERE ACROSS MINNESOTA  *****

CITY           SKY/WX    TMP DP  RH WIND       PRES   REMARKS
DULUTH         SUNNY     62  52  69 W13       29.96R
6HR MIN TEMP:  60; 6HR MAX TEMP:  66;

INTRNTL FALLS  SUNNY     56  53  90 W8        29.94R
6HR MIN TEMP:  54; 6HR MAX TEMP:  59;

ELY            SUNNY     57  54  88 CALM      29.93R
CLOQUET        SUNNY     61  50  67 W9        29.98R
BRAINERD       CLEAR     63  51  65 W9G18     30.05R
6HR MIN TEMP:  61; 6HR MAX TEMP:  69;

HIBBING        SUNNY     61  53  75 W8        29.96R
6HR MIN TEMP:  55; 6HR MAX TEMP:  62;

ALEXANDRIA     CLEAR     61  55  81 W8        30.12R
6HR MIN TEMP:  57; 6HR MAX TEMP:  66;

SAINT CLOUD    CLEAR     64  53  67 W8        30.07R
6HR MIN TEMP:  61; 6HR MAX TEMP:  68;

MINNEAPOLIS    CLEAR     67  55  65 W8        30.06R
6HR MIN TEMP:  65; 6HR MAX TEMP:  73;

$$

  *****  WEATHER ACROSS SOUTH DAKOTA  *****

CITY           SKY/WX    TMP DP  RH WIND       PRES   REMARKS
SIOUX FALLS    MOCLDY    61  59  93 CALM      30.14R
6HR MIN TEMP:  60; 6HR MAX TEMP:  68;

BROOKINGS      CLEAR     55  54  94 CALM      30.18R
WATERTOWN      CLEAR     58  54  86 N5        30.16R
6HR MIN TEMP:  56; 6HR MAX TEMP:  65;

HURON          CLEAR     59  57  93 CALM      30.16R
6HR MIN TEMP:  58; 6HR MAX TEMP:  70;

SISSETON         N/A     57  52  83 NW5       30.12R
ABERDEEN       CLEAR     54  50  86 CALM      30.15S
6HR MIN TEMP:  52; 6HR MAX TEMP:  58;

MITCHELL       CLEAR     60  57  89 NW3       30.15R
PIERRE         CLEAR     57  52  83 NE8       30.15R
6HR MIN TEMP:  55; 6HR MAX TEMP:  65;

MOBRIDGE       CLEAR     56  55  97 CALM      30.16R
RAPID CITY     CLEAR     58  48  69 NW8       30.22R
6HR MIN TEMP:  54; 6HR MAX TEMP:  64;

$$

  *****  SOME WEATHER IN NEARBY STATES *****

CITY           SKY/WX    TMP DP  RH WIND       PRES   REMARKS
GLASGOW MT     CLEAR     57  48  72 E10       30.16S
6HR MIN TEMP:  57; 6HR MAX TEMP:  66;

GREAT FALLS MT CLEAR     52  42  69 W7        30.19S
6HR MIN TEMP:  50; 6HR MAX TEMP:  65;

CHEYENNE WY    CLEAR     55  50  83 W9        30.38R
6HR MIN TEMP:  54; 6HR MAX TEMP:  62;

SCOTTSBLUFF NE CLEAR     59  57  93 S3        30.26S
6HR MIN TEMP:  59; 6HR MAX TEMP:  65;

OMAHA NE       PTCLDY    72  64  76 SW5       30.13S
6HR MIN TEMP:  69; 6HR MAX TEMP:  75; 6HR PCP:  0.07;

DES MOINES IA  PTCLDY    71  63  75 CALM      30.12R
6HR MIN TEMP:  69; 6HR MAX TEMP:  73;

DAVENPORT IA   SUNNY     67  64  90 W8        30.07R
6HR MIN TEMP:  64; 6HR MAX TEMP:  67;

CHICAGO IL     MOSUNNY   70  59  68 W9        30.01S
6HR MIN TEMP:  67; 6HR MAX TEMP:  74;

EAU CLAIRE WI  SUNNY     64  56  75 W6        30.00R
6HR MIN TEMP:  61; 6HR MAX TEMP:  64;

LA CROSSE WI   SUNNY     69  60  73 NW9       30.03R
6HR MIN TEMP:  62; 6HR MAX TEMP:  70;

$$

  *****  SOME NATIONAL WEATHER *****

CITY           SKY/WX    TMP DP  RH WIND       PRES   REMARKS
LA GUARDIA NY  MOSUNNY   76  60  57 NW8       29.87R



USA.gov is the U.S. government's official web portal to all federal, state and local government web resources and services.